[Date Prev][Date Next][Thread Prev][Thread Next] - [Date Index][Thread Index][Author Index]

MIR & ISS Keps 1-15



MIR
1 16609U 86017A   99015.23904817  .00030841  00000-0  24710-3 0  1188
2 16609  51.6587  47.0459 0010241 358.2075   1.8880 15.70698579737349


ISS
1 25544U 98067A   99015.20032567  .00019977  00000-0  28220-3 0  2194
2 25544  51.5936 246.9691 0004167  24.6754 335.4436 15.56538370  8733

----
Via the sarex mailing list at AMSAT.ORG courtesy of AMSAT-NA.
To unsubscribe, send "unsubscribe sarex" to Majordomo@amsat.org



AMSAT Top AMSAT Home